Location: Unspecified
(43.3830°N, 0.0000°E)
Time: 19:34:01
(UTC+00:00)

Altair - Visible Passes

Search period start: 16 June 2019 00:00
Search period end: 26 June 2019 00:00
Orbit: 1501 x 1683 km, 47.2° (Epoch: 16 June)

Date Brightness Start Highest point End Pass type
(mag) Time Alt. Az. Time Alt. Az. Time Alt. Az.
16 Jun 7.8 01:32:53 10° WNW 01:42:56 78° NNE 01:53:11 10° ESE visible
16 Jun 7.7 03:37:56 10° WNW 03:47:46 59° SW 03:57:38 10° SE visible
16 Jun 7.6 20:57:50 10° SW 21:07:13 62° SE 21:17:00 10° ENE visible
16 Jun 7.7 23:02:15 10° W 23:12:04 76° NNW 23:22:14 10° ENE visible
17 Jun 7.8 01:07:40 10° WNW 01:17:42 77° NNE 01:27:54 10° E visible
17 Jun 7.7 03:12:43 10° WNW 03:22:36 63° SW 03:32:34 10° SE visible
17 Jun 7.6 20:32:48 10° SW 20:42:05 59° SE 20:51:45 10° ENE visible
17 Jun 7.7 22:37:02 10° W 22:46:49 78° NNW 22:56:58 10° ENE visible
18 Jun 7.8 00:42:27 10° WNW 00:52:25 75° N 01:02:38 10° E visible
18 Jun 7.6 02:47:30 10° WNW 02:57:26 66° SSW 03:07:28 10° SE visible
18 Jun 7.7 20:07:48 10° SW 20:16:57 55° SE 20:26:30 10° ENE visible
18 Jun 7.7 22:11:50 10° WSW 22:21:35 80° NNW 22:31:42 10° ENE visible
19 Jun 7.8 00:17:13 10° WNW 00:27:10 74° N 00:37:21 10° E visible
19 Jun 7.6 02:22:17 10° WNW 02:32:15 70° SSW 02:42:20 10° SE visible
19 Jun 7.7 21:46:38 10° WSW 21:56:21 82° NNW 22:06:27 10° ENE visible
19 Jun 7.8 23:52:00 10° WNW 00:01:54 73° N 00:12:04 10° E visible
20 Jun 7.6 01:57:05 10° WNW 02:07:04 74° SSW 02:17:12 10° SE visible
20 Jun 7.6 21:21:27 10° WSW 21:31:08 84° NNW 21:41:12 10° ENE visible
20 Jun 7.8 23:26:47 10° W 23:36:38 72° N 23:46:47 10° E visible
21 Jun 7.5 01:31:53 10° WNW 01:41:52 77° SSW 01:52:02 10° SE visible
21 Jun 8.2 03:37:22 10° WNW 03:45:45 31° SW 03:54:10 10° S visible
21 Jun 7.6 20:56:16 10° WSW 21:05:54 87° NNW 21:15:57 10° ENE visible
21 Jun 7.8 23:01:34 10° W 23:11:22 72° N 23:21:30 10° E visible
22 Jun 7.5 01:06:41 10° WNW 01:16:40 81° SSW 01:26:51 10° ESE visible
22 Jun 8.1 03:12:03 10° WNW 03:20:39 34° SW 03:29:21 10° SSE visible
22 Jun 7.6 20:31:08 10° WSW 20:40:42 90° NNE 20:50:42 10° ENE visible
22 Jun 7.8 22:36:22 10° W 22:46:07 71° N 22:56:13 10° E visible
23 Jun 7.5 00:41:29 10° WNW 00:51:28 84° SSW 01:01:39 10° ESE visible
23 Jun 8.0 02:46:44 10° WNW 02:55:34 37° SW 03:04:28 10° SSE visible
23 Jun 7.6 20:05:59 10° WSW 20:15:30 87° SSE 20:25:28 10° ENE visible
23 Jun 7.8 22:11:08 10° W 22:20:51 71° N 22:30:56 10° E visible
24 Jun 7.5 00:16:19 10° WNW 00:26:15 87° SSW 00:36:26 10° ESE visible
24 Jun 7.9 02:21:27 10° WNW 02:30:27 39° SW 02:39:34 10° SSE visible
24 Jun 7.9 21:45:55 10° W 21:55:35 71° N 22:05:38 10° E visible
24 Jun 7.6 23:51:07 10° WNW 00:01:02 90° NE 00:11:14 10° ESE visible
25 Jun 7.9 01:56:12 10° WNW 02:05:20 42° SW 02:14:38 10° SSE visible
25 Jun 7.9 21:20:42 10° W 21:30:20 71° N 21:40:21 10° E visible
25 Jun 7.6 23:25:56 10° WNW 23:35:48 87° NNE 23:46:00 10° ESE visible
